Weather History for Toccoa Rg Letourneau Field, T, GA

Change the Weather History Date:

Friday, December 6, 2013

  Actual Average Record
Temperature  
Mean Temperature 70 °F -  
Max Temperature 77 °F 57 °F 77 °F (2013)
Min Temperature 64 °F 34 °F 64 °F (2013)
Cooling Degree Days 5    
Growing Degree Days 20 (Base 50)    
Moisture  
Dew Point 67 °F    
Average Humidity 87    
Maximum Humidity 98    
Minimum Humidity 70    
Precipitation  
Precipitation 0.00 in - - ()
Sea Level Pressure  
Sea Level Pressure 30.02 in    
Wind  
Wind Speed 8 mph (SW)    
Max Wind Speed 14 mph    
Max Gust Speed 21 mph    
Visibility 9 miles    
Events Rain    
Averages and records for this station are not official NWS values.
T = Trace of Precipitation, MM = Missing Value Source: NWS Daily Summary

Daily Weather History Graph

Daily Weather History Graph

Search for Another Location

Airport:

Trip Planner

Search our weather history database for the weather conditions in past years. The results will help you decide how hot, cold, wet, or windy it might be!

Date:

Astronomy

Dec. 06, 2013 Rise Set
Actual Time 7:26 AM EST 5:22 PM EST
Civil Twilight 6:58 AM EST 5:50 PM EST
Nautical Twilight 6:27 AM EST 6:21 PM EST
Astronomical Twilight 5:56 AM EST 6:51 PM EST
Moon 10:36 AM EST (12/6) 9:46 PM EST (12/6)
Length of Visible Light 10h 51m
Length of Day
9h 56m
Waxing Crescent, 19% of the Moon is Illuminated
Dec 6
Waxing Crescent
Dec 9
First Quarter
Dec 17
Full
Dec 25
Last Quarter
Jan 1
New

Hourly Weather History & Observations

Time (EST) Temp. Dew Point Humidity Pressure Visibility Wind Dir Wind Speed Gust Speed Precip Events Conditions
12:15 AM 69.8 °F 68.9 °F 97% 30.03 in 7.0 mi SW 10.4 mph - N/A Rain Rain
12:35 AM 69.8 °F 68.9 °F 97% 30.03 in 3.0 mi SSW 8.1 mph - N/A Rain Heavy Rain
12:55 AM 69.4 °F 68.9 °F 98% 30.02 in 5.0 mi West 5.8 mph - N/A Rain Light Rain
1:15 AM 69.8 °F 68.9 °F 97% 30.02 in 7.0 mi SW 6.9 mph - N/A   Overcast
1:35 AM 69.8 °F 68.5 °F 96% 30.02 in 7.0 mi SW 9.2 mph - N/A   Overcast
1:55 AM 69.6 °F 68.4 °F 96% 30.01 in 10.0 mi SSW 9.2 mph - N/A   Overcast
2:15 AM 69.6 °F 68.2 °F 95% 30.01 in 10.0 mi SW 10.4 mph 16.1 mph N/A   Overcast
2:35 AM 69.3 °F 68.0 °F 96% 30.02 in 7.0 mi SW 12.7 mph 17.3 mph N/A Rain Light Rain
2:55 AM 69.3 °F 68.2 °F 96% 30.00 in 7.0 mi SSW 6.9 mph - N/A   Drizzle
3:15 AM 68.9 °F 68.0 °F 97% 30.01 in 7.0 mi SSW 6.9 mph - N/A Rain Light Rain
3:35 AM 68.9 °F 68.0 °F 97% 30.00 in 7.0 mi SSW 5.8 mph - N/A   Overcast
3:55 AM 68.9 °F 68.0 °F 97% 30.01 in 7.0 mi SW 6.9 mph - N/A   Overcast
6:35 AM 68.5 °F 67.3 °F 96% 30.03 in 10.0 mi SW 8.1 mph - N/A   Overcast
6:55 AM 68.5 °F 67.1 °F 95% 30.03 in 10.0 mi SW 8.1 mph - N/A   Overcast
7:15 AM 68.9 °F 67.1 °F 94% 30.03 in 10.0 mi SW 10.4 mph - N/A   Overcast
7:35 AM 68.9 °F 67.1 °F 94% 30.04 in 10.0 mi SW 6.9 mph - N/A   Overcast
7:55 AM 68.9 °F 67.1 °F 94% 30.04 in 10.0 mi SW 6.9 mph - N/A   Overcast
8:15 AM 68.9 °F 67.1 °F 94% 30.06 in 10.0 mi SW 6.9 mph - N/A   Overcast
8:35 AM 68.9 °F 67.1 °F 94% 30.05 in 10.0 mi SSW 5.8 mph - N/A   Overcast
8:55 AM 69.6 °F 67.3 °F 92% 30.06 in 10.0 mi SW 8.1 mph - N/A   Overcast
9:15 AM 70.0 °F 67.5 °F 92% 30.06 in 10.0 mi SW 8.1 mph - N/A   Overcast
9:35 AM 70.2 °F 67.5 °F 91% 30.07 in 10.0 mi SW 9.2 mph - N/A   Overcast
9:55 AM 70.7 °F 67.8 °F 91% 30.07 in 10.0 mi SW 9.2 mph - N/A   Overcast
10:15 AM 71.6 °F 67.5 °F 87% 30.07 in 10.0 mi SW 8.1 mph - N/A   Overcast
10:35 AM 71.2 °F 67.1 °F 87% 30.07 in 10.0 mi SW 10.4 mph 17.3 mph N/A   Overcast
10:55 AM 71.6 °F 67.5 °F 87% 30.07 in 10.0 mi SW 9.2 mph - N/A   Overcast
11:15 AM 72.5 °F 67.6 °F 85% 30.07 in 10.0 mi WSW 6.9 mph - N/A   Overcast
11:35 AM 72.5 °F 67.3 °F 84% 30.06 in 10.0 mi SW 9.2 mph 16.1 mph N/A   Overcast
11:55 AM 72.5 °F 66.9 °F 83% 30.06 in 10.0 mi SW 11.5 mph 19.6 mph N/A   Overcast
12:15 PM 72.5 °F 67.1 °F 83% 30.04 in 10.0 mi SW 10.4 mph - N/A   Overcast
12:35 PM 73.8 °F 67.3 °F 80% 30.04 in 10.0 mi SW 9.2 mph - N/A   Overcast
12:55 PM 73.6 °F 67.1 °F 80% 30.03 in 10.0 mi SW 6.9 mph - N/A   Overcast
1:15 PM 75.6 °F 66.9 °F 74% 30.02 in 10.0 mi SW 8.1 mph - N/A   Mostly Cloudy
1:35 PM 75.2 °F 66.2 °F 73% 30.02 in 10.0 mi SW 9.2 mph 19.6 mph N/A   Overcast
1:55 PM 75.4 °F 66.6 °F 74% 30.01 in 10.0 mi South 3.5 mph - N/A   Overcast
2:15 PM 76.8 °F 66.6 °F 70% 30.00 in 10.0 mi SSW 10.4 mph 19.6 mph N/A   Mostly Cloudy
2:35 PM 76.3 °F 66.6 °F 72% 30.00 in 10.0 mi SSW 9.2 mph 16.1 mph N/A   Mostly Cloudy
2:55 PM 76.5 °F 66.6 °F 71% 30.00 in 10.0 mi SW 10.4 mph 19.6 mph N/A   Overcast
3:15 PM 75.4 °F 66.2 °F 73% 30.00 in 10.0 mi SW 13.8 mph 20.7 mph N/A   Overcast
3:35 PM 75.2 °F 66.4 °F 74% 30.00 in 10.0 mi SW 11.5 mph 18.4 mph N/A   Overcast
3:55 PM 74.5 °F 66.4 °F 76% 30.00 in 10.0 mi SSW 8.1 mph - N/A   Overcast
4:15 PM 73.9 °F 66.6 °F 78% 30.00 in 10.0 mi SW 8.1 mph - N/A   Overcast
4:35 PM 73.9 °F 66.4 °F 77% 30.01 in 10.0 mi SSW 8.1 mph - N/A   Mostly Cloudy
4:55 PM 73.8 °F 66.2 °F 77% 30.00 in 10.0 mi SW 8.1 mph 18.4 mph N/A   Overcast
5:15 PM 73.4 °F 66.2 °F 78% 30.01 in 10.0 mi SW 8.1 mph - N/A   Overcast
5:35 PM 72.9 °F 66.4 °F 80% 30.01 in 10.0 mi SSW 4.6 mph - N/A   Overcast
5:55 PM 72.1 °F 66.4 °F 82% 30.01 in 10.0 mi SSW 4.6 mph - N/A   Overcast
6:55 PM 71.8 °F 66.6 °F 84% 30.00 in 10.0 mi SSW 3.5 mph - N/A   Overcast
7:15 PM 71.6 °F 66.2 °F 83% 30.01 in 10.0 mi SSW 5.8 mph - N/A   Overcast
7:35 PM 71.6 °F 65.8 °F 82% 30.00 in 10.0 mi SSW 5.8 mph - N/A   Overcast
7:55 PM 71.1 °F 65.5 °F 82% 30.00 in 10.0 mi SW 5.8 mph - N/A   Overcast
8:15 PM 71.1 °F 65.7 °F 83% 29.99 in 10.0 mi SSW 8.1 mph - N/A   Overcast
8:35 PM 71.1 °F 65.8 °F 84% 29.99 in 10.0 mi SSW 10.4 mph 16.1 mph N/A   Overcast
8:55 PM 71.2 °F 66.2 °F 84% 29.99 in 10.0 mi SSW 9.2 mph 17.3 mph N/A   Overcast
9:15 PM 71.4 °F 66.4 °F 84% 29.99 in 10.0 mi SW 11.5 mph 17.3 mph N/A   Overcast
9:35 PM 71.6 °F 66.4 °F 84% 30.00 in 10.0 mi SW 11.5 mph 16.1 mph N/A   Overcast
9:55 PM 71.6 °F 66.6 °F 84% 30.00 in 10.0 mi WSW 9.2 mph - N/A   Overcast
10:15 PM 70.2 °F 67.5 °F 91% 30.01 in 5.0 mi WSW 13.8 mph 18.4 mph N/A Rain Heavy Rain
10:35 PM 67.5 °F 65.5 °F 93% 30.03 in 7.0 mi North 6.9 mph - N/A Rain Light Rain
10:55 PM 65.5 °F 63.7 °F 94% 30.03 in 10.0 mi Calm Calm - N/A Rain Light Rain
11:15 PM 64.8 °F 62.8 °F 93% 30.04 in 10.0 mi Calm Calm - N/A   Overcast
11:35 PM 64.2 °F 62.6 °F 94% 30.03 in 10.0 mi Calm Calm - N/A   Overcast
11:55 PM 64.8 °F 63.5 °F 96% 30.02 in 10.0 mi Calm Calm - N/A   Overcast